Regional Weather Roundup
Issued by NWS

Home | Current Version | Previous Version | Text Only | Print | Product List | Glossary Off
Versions: 1 2 3 4 5 6 7 8 9 10 11 12 13 14 15 16 17 18 19 20 21 22 23 24 25 26 27 28 29 30 31 32 33 34 35 36 37 38 39 40 41 42 43 44 45 46 47 48 49 50

000
ASUS43 KOAX 272110
RWRNE

WEATHER ROUNDUP FOR NEBRASKA
NATIONAL WEATHER SERVICE OMAHA NE
300 PM CST FRI FEB 27 2015

NOTES: SATELLITE DATA IS BEING USED TO AUGMENT CLOUD COVER ABOVE
       12000 FEET.
       "FAIR" INDICATES FEW OR NO CLOUDS BELOW 12,000 FEET WITH NO
       SIGNIFICANT WEATHER AND/OR OBSTRUCTIONS TO VISIBILITY.

  * THESE STATIONS DO NOT REPORT WEATHER SUCH AS RAIN...SNOW OR FOG.

NEZ001>004-019>022-054>056-272200-
NEBRASKA PANHANDLE

CITY           SKY/WX    TMP DP  RH WIND       PRES   REMARKS
SCOTTSBLUFF    FLURRIES  23   9  55 S23       30.02F WCI   7
ALLIANCE       LGT SNOW  19  11  70 S23G32    30.05F WCI   2
CHADRON        CLOUDY    24  10  55 S22G32    30.06F WCI   9
KIMBALL        LGT SNOW  17  10  72 S22G28    29.95F WCI   0
SIDNEY         CLOUDY    18   8  65 S22G29    30.04F WCI   1
$$

NEZ057>060-069>072-079>082-272200-
SOUTHWEST NEBRASKA

CITY           SKY/WX    TMP DP  RH WIND       PRES   REMARKS
NORTH PLATTE   SUNNY     24   1  36 S13       30.24F WCI  12
IMPERIAL       FLURRIES  20   9  62 S18G25    30.19F WCI   5
LEXINGTON      MOSUNNY   24  -2  32 S14       30.31F WCI  11
MCCOOK         CLOUDY    23   4  44 S12G23    30.29F WCI  12
OGALLALA       CLOUDY    22   8  55 S17       30.18S WCI   7
$$

NEZ005>010-023>029-035>040-094-272200-
NORTH CENTRAL NEBRASKA

CITY           SKY/WX    TMP DP  RH WIND       PRES   REMARKS
VALENTINE      SUNNY     25   0  33 S15       30.22F WCI  13
AINSWORTH      SUNNY     24  -4  29 S15       30.24F WCI  11
BROKEN BOW     SUNNY     23  -2  33 S10G24    30.29F WCI  12
O`NEILL        SUNNY     24  -5  28 S9        30.34F WCI  15
ORD            SUNNY     22  -6  29 S13G20    30.35F WCI  10
THEDFORD       SUNNY     25   2  37 S13G21    30.22F WCI  13
$$

NEZ041-046>049-061>064-073>077-083>087-272200-
SOUTH CENTRAL NEBRASKA

CITY           SKY/WX    TMP DP  RH WIND       PRES   REMARKS
GRAND ISLAND   MOSUNNY   22  -3  33 S9        30.41F WCI  12
AURORA         SUNNY     21  -5  31 S8        30.41F WCI  12
HASTINGS       MOSUNNY   21  -5  31 SE8       30.39F WCI  11
HEBRON         MOSUNNY   21  -2  36 SE5       30.47F WCI  15
HOLDREGE       CLOUDY    22  -5  29 SE8G16    30.34F WCI  13
KEARNEY *      SUNNY     21  -6  30 S12       30.36F WCI   9
YORK           SUNNY     19  -2  38 S5        30.44F WCI  13
$$

NEZ011>018-030>034-042>045-272200-
NORTHEAST NEBRASKA

CITY           SKY/WX    TMP DP  RH WIND       PRES   REMARKS
NORFOLK        SUNNY     21   0  39 MISG      30.43F
ALBION         SUNNY     22  -5  30 S12       30.40F WCI  11
BLAIR          SUNNY     17   3  54 S3        30.50F
COLUMBUS *     SUNNY     19  -2  38 SE8       30.47F WCI   9
FREMONT        SUNNY     19   3  48 E6        30.51F WCI  11
TEKAMAH        SUNNY     17   4  56 SE5       30.54F WCI  10
WAYNE          SUNNY     20   4  50 S5        30.47F WCI  13
$$

NEZ050>053-065>068-078-088>093-272200-
SOUTHEAST NEBRASKA

CITY           SKY/WX    TMP DP  RH WIND       PRES   REMARKS
LINCOLN        SUNNY     20  -1  40 SE6       30.51F WCI  12
OMAHA EPPLEY   MOSUNNY   18   1  47 CALM      30.55F
BEATRICE       SUNNY     20  -2  38 SE6       30.49F WCI  13
FALLS CITY     MOSUNNY   20  -2  38 CALM      30.54F
NEBRASKA CITY  SUNNY     20  -4  34 E5        30.52F WCI  14
PLATTSMOUTH    SUNNY     18   1  46 E5        30.52F WCI  11
$$

NEZ044-045-051>053-067-272200-
OMAHA AREA

CITY           SKY/WX    TMP DP  RH WIND       PRES   REMARKS
OMAHA EPPLEY   MOSUNNY   18   1  47 CALM      30.55F
BLAIR          SUNNY     17   3  54 S3        30.50F
FREMONT        SUNNY     19   3  48 E6        30.51F WCI  11
MILLARD        SUNNY     19  -1  41 CALM      30.53F
OFFUTT AFB     SUNNY     18   0  46 SE7       30.53F WCI   8
PLATTSMOUTH    SUNNY     18   1  46 E5        30.52F WCI  11
WAHOO          FAIR      19   0  43 E6        30.50F WCI  11
$$



USA.gov is the U.S. government's official web portal to all federal, state and local government web resources and services.